Weather History for CWWL - January, 2013

Change the Weather History Date:

Saturday, January 19, 2013

  Actual Average Record
Temperature  
Mean Temperature 44 °F -  
Max Temperature 47 °F - - ()
Min Temperature 41 °F - - ()
Degree Days  
Heating Degree Days 21    
Moisture  
Dew Point 42 °F    
Average Humidity 89    
Maximum Humidity 96    
Minimum Humidity 82    
Precipitation  
Precipitation 0.00 in - - ()
Sea Level Pressure  
Sea Level Pressure 30.24 in    
Wind  
Wind Speed 13 mph ()    
Max Wind Speed 22 mph    
Max Gust Speed 28 mph    
T = Trace of Precipitation, MM = Missing Value Source: Averaged Metar Reports

Daily Weather History Graph

Daily Weather History Graph

Search for Another Location

Airport or City:

Trip Planner

Search our weather history database for the weather conditions in past years. The results will help you decide how hot, cold, wet, or windy it might be!

Date:

Astronomy

Jan. 19, 2013 Rise Set
Actual Time 8:45 AM PST 5:01 PM PST
Civil Twilight 8:05 AM PST 5:41 PM PST
Nautical Twilight 7:22 AM PST 6:25 PM PST
Astronomical Twilight 6:40 AM PST 7:06 PM PST
Moon 11:41 AM PST (1/19) 2:14 AM PST (1/19)
Length of Visible Light 9h 36m
Length of Day
8h 15m
First Quarter, 58% of the Moon is Illuminated
Jan 19
First Quarter
Jan 26
Full
Feb 3
Last Quarter
Feb 9
New
Feb 17
First Quarter

Hourly Weather History & Observations

Time (PST) Temp. Windchill Dew Point Humidity Pressure Visibility Wind Dir Wind Speed Gust Speed Precip Events Conditions
12:00 AM 44.2 °F 37.6 °F 42.3 °F 93% 30.24 in - South 13.8 mph - N/A   Unknown
1:00 AM 43.7 °F 37.3 °F 42.3 °F 95% 30.25 in - South 12.7 mph - N/A   Unknown
2:00 AM 44.4 °F 37.9 °F 42.6 °F 93% 30.24 in - SSE 13.8 mph - N/A   Unknown
3:00 AM 44.4 °F 37.5 °F 42.6 °F 93% 30.24 in - SSE 15.0 mph - N/A   Unknown
4:00 AM 45 °F - 43 °F 89% 30.24 in - SSE 17.3 mph - -  
4:00 AM 44.8 °F 37.4 °F 42.8 °F 93% 30.24 in - SSE 17.3 mph 23.0 mph N/A   Unknown
5:00 AM 44.1 °F 36.2 °F 43.0 °F 96% 30.24 in - SSE 18.4 mph 27.6 mph N/A   Unknown
6:00 AM 44.4 °F 36.6 °F 43.0 °F 95% 30.24 in - SSE 18.4 mph 25.3 mph N/A   Unknown
7:00 AM 43.9 °F 36.8 °F 42.4 °F 95% 30.23 in - SSE 15.0 mph 23.0 mph N/A   Unknown
8:00 AM 43.7 °F 36.9 °F 42.1 °F 94% 30.23 in - SSE 13.8 mph 20.7 mph N/A   Unknown
9:00 AM 43.7 °F 39.7 °F 41.7 °F 93% 30.25 in - SSE 6.9 mph - N/A   Unknown
10:00 AM 45 °F - 42 °F 86% 30.25 in - SE 8.1 mph - -  
10:00 AM 45.0 °F 40.6 °F 42.1 °F 90% 30.25 in - SE 8.1 mph - N/A   Unknown
12:00 PM 46.6 °F - 41.9 °F 84% 30.25 in - SSE 12.7 mph 19.6 mph N/A   Unknown
1:00 PM 45.9 °F 38.8 °F 42.6 °F 88% 30.25 in - South 17.3 mph - N/A   Unknown
2:00 PM 45.5 °F 38.6 °F 41.9 °F 87% 30.24 in - SSE 16.1 mph 24.2 mph N/A   Unknown
3:00 PM 45.3 °F 39.7 °F 42.1 °F 88% 30.24 in - SSE 11.5 mph 19.6 mph N/A   Unknown
4:00 PM 45 °F - 41 °F 82% 30.24 in - SSE 18.4 mph - -  
4:00 PM 45.3 °F 37.8 °F 41.4 °F 86% 30.24 in - SSE 18.4 mph - N/A   Unknown
5:00 PM 45.3 °F 37.1 °F 41.4 °F 86% 30.24 in - SSE 21.9 mph - N/A   Unknown
6:00 PM 45.5 °F 37.6 °F 41.5 °F 86% 30.24 in - SSE 20.7 mph - N/A   Unknown
7:00 PM 45.1 °F 39.9 °F 41.2 °F 86% 30.24 in - SSE 10.4 mph - N/A   Unknown
8:00 PM 45.5 °F 37.6 °F 41.0 °F 84% 30.25 in - South 20.7 mph - N/A   Unknown
9:00 PM 45.0 °F 38.9 °F 41.4 °F 87% 30.26 in - SSE 12.7 mph - N/A   Unknown
10:00 PM 45 °F - 41 °F 82% 30.26 in - SSE 13.8 mph - -  
10:00 PM 45.0 °F 38.5 °F 41.2 °F 87% 30.26 in - SSE 13.8 mph - N/A   Unknown
11:00 PM 45.0 °F 38.9 °F 41.0 °F 86% 30.26 in - SSE 12.7 mph 18.4 mph N/A   Unknown